Weather reports worldwide

Advertisment
London/Heathrow Intl, United Kingdom (3772): temperature & dewpoint: 12.07.2018 18:00:00 - 18.07.2018 18:00:00 (BST)London/Heathrow Intl, United Kingdom (3772): wind speed: 12.07.2018 18:00:00 - 18.07.2018 18:00:00 (BST)London/Heathrow Intl, United Kingdom (3772): wind direction: 12.07.2018 18:00:00 - 18.07.2018 18:00:00 (BST)London/Heathrow Intl, United Kingdom (3772): reduced air pressure: 12.07.2018 18:00:00 - 18.07.2018 18:00:00 (BST)London/Heathrow Intl, United Kingdom (3772): visibility: 12.07.2018 18:00:00 - 18.07.2018 18:00:00 (BST)London/Heathrow Intl, United Kingdom (3772): sunshine duration: 12.07.2018 18:00:00 - 18.07.2018 18:00:00 (BST)London/Heathrow Intl, United Kingdom (3772): precipitation: 12.07.2018 18:00:00 - 18.07.2018 18:00:00 (BST)
Date & Time tt [°C] td [°C] ff [km/h] ff [kn] dd ppp [hPa] vv [km] sd [min] rr [mm]
18.07.2018 18:00:00 24,2 8,8 13 7 W 1017,9 10 54 0,0
18.07.2018 17:00:00 26,0 9,4 11 6 SW 1017,9 10 60 0,0
18.07.2018 16:00:00 25,7 8,4 15 8 SW 1018,1 10 60 0,0
18.07.2018 15:00:00 25,5 8,8 13 7 S 1018,1 10 54 0,0
18.07.2018 14:00:00 24,8 8,8 13 7 W 1018,1 10 24 0,0
18.07.2018 13:00:00 23,5 9,5 13 7 SW 1018,4 10 0 0,0
18.07.2018 12:00:00 22,8 10,0 9 5 W 1018,7 10 18 0,0
18.07.2018 11:00:00 22,1 10,8 11 6 SSW 1018,6 10 6 0,0
18.07.2018 10:00:00 20,6 11,5 8 4 - 1018,9 10 6 0,0
18.07.2018 09:00:00 20,3 12,4 5 3 - 1018,8 10 48 0,0
18.07.2018 08:00:00 17,4 13,1 8 4 WSW 1018,8 10 12 0,0
18.07.2018 07:00:00 16,3 13,1 9 5 SSW 1018,4 10 0 0,0
18.07.2018 06:00:00 15,2 12,5 9 5 SW 1018,1 10 0 0,0
18.07.2018 05:00:00 15,4 12,1 5 3 - 1017,7 10 0 0,0
18.07.2018 04:00:00 16,2 12,4 9 5 WSW 1017,7 10 0 0,0
18.07.2018 03:00:00 16,6 12,2 11 6 WSW 1017,6 10 0 0,0
18.07.2018 02:00:00 17,1 12,0 11 6 WSW 1017,7 10 0 0,0
18.07.2018 01:00:00 17,7 11,8 11 6 WSW 1017,7 10 - 0,0
18.07.2018 00:00:00 18,7 11,8 13 7 WSW 1017,6 10 0 0,0
17.07.2018 23:00:00 19,1 12,3 13 7 SW 1017,4 10 0 0,0
17.07.2018 22:00:00 19,9 11,7 16 9 SW 1017,2 10 0 0,0
17.07.2018 21:00:00 20,4 11,5 18 10 WSW 1016,8 10 24 0,0
17.07.2018 20:00:00 21,6 10,6 18 10 WSW 1016,3 10 42 0,0
17.07.2018 19:00:00 22,8 10,4 21 11 SW 1015,9 10 18 0,0
17.07.2018 18:00:00 22,3 10,1 22 12 SW 1016,0 10 12 0,0
17.07.2018 17:00:00 22,6 10,0 22 12 WSW 1016,1 10 18 0,0
17.07.2018 16:00:00 23,3 8,8 22 12 WSW 1016,0 10 18 0,0
17.07.2018 15:00:00 24,6 9,0 24 13 WSW 1015,9 10 30 0,0
17.07.2018 14:00:00 23,4 8,9 22 12 WSW 1016,0 10 12 0,0
17.07.2018 13:00:00 23,7 9,1 21 11 WSW 1016,1 10 30 0,0
17.07.2018 12:00:00 21,4 9,0 18 10 SW 1016,2 10 36 0,0
17.07.2018 11:00:00 21,0 9,4 22 12 W 1016,1 10 42 0,0
17.07.2018 10:00:00 20,5 10,0 16 9 W 1015,9 10 60 0,0
17.07.2018 09:00:00 19,0 11,0 15 8 W 1016,0 10 60 0,0
17.07.2018 08:00:00 17,3 11,0 13 7 W 1015,9 10 60 0,0
17.07.2018 07:00:00 15,2 10,9 15 8 W 1015,6 10 42 0,0
17.07.2018 06:00:00 13,9 10,7 15 8 W 1015,0 10 0 0,0
17.07.2018 05:00:00 14,1 10,5 13 7 W 1014,6 10 0 0,0
17.07.2018 04:00:00 15,0 10,7 18 10 W 1014,4 10 0 0,0
17.07.2018 03:00:00 15,6 11,2 16 9 W 1014,4 10 0 0,0
17.07.2018 02:00:00 16,8 11,0 18 10 W 1014,4 10 0 0,0
17.07.2018 01:00:00 17,8 10,0 21 11 W 1014,4 10 - 0,0
17.07.2018 00:00:00 19,2 10,0 18 10 W 1014,2 10 0 0,0
16.07.2018 23:00:00 20,4 12,2 24 13 W 1013,7 10 0 0,0
16.07.2018 22:00:00 21,4 14,3 21 11 WNW 1013,2 10 0 0,0
16.07.2018 21:00:00 23,9 14,1 22 12 W 1012,3 10 30 0,0
16.07.2018 20:00:00 26,5 7,9 16 9 WSW 1011,6 10 54 0,0
16.07.2018 19:00:00 27,4 9,2 21 11 SW 1011,6 10 54 0,0
16.07.2018 18:00:00 27,9 10,8 18 10 WSW 1011,6 10 42 0,0
16.07.2018 17:00:00 28,5 10,8 18 10 WSW 1011,8 10 18 0,0
16.07.2018 16:00:00 27,7 9,8 21 11 W 1011,8 10 6 0,0
16.07.2018 15:00:00 27,9 7,9 13 7 - 1012,2 10 42 0,0
16.07.2018 14:00:00 27,8 9,1 13 7 W 1012,7 10 24 0,0
16.07.2018 13:00:00 27,1 9,7 9 5 - 1013,1 10 36 0,0
16.07.2018 12:00:00 27,7 10,1 13 7 WSW 1013,4 10 54 0,0
16.07.2018 11:00:00 26,8 11,0 13 7 W 1013,7 10 60 0,0
16.07.2018 10:00:00 25,1 11,8 5 3 - 1013,8 10 60 0,0
16.07.2018 09:00:00 23,3 12,6 4 2 - 1014,0 10 60 0,0
16.07.2018 08:00:00 20,3 11,6 8 4 WNW 1014,2 10 60 0,0
16.07.2018 07:00:00 18,4 12,3 5 3 - 1014,1 10 24 0,0
16.07.2018 06:00:00 16,2 12,0 9 5 W 1014,4 10 0 0,0
16.07.2018 05:00:00 15,9 11,1 11 6 W 1014,3 10 0 0,0
16.07.2018 04:00:00 17,5 10,8 8 4 W 1014,2 10 0 0,0
16.07.2018 03:00:00 18,8 10,6 5 3 W 1014,2 10 0 0,0
16.07.2018 02:00:00 19,4 9,8 8 4 W 1014,4 10 0 0,0
16.07.2018 01:00:00 20,7 9,7 8 4 W 1014,7 10 - 0,0
16.07.2018 00:00:00 21,6 8,9 5 3 W 1014,7 10 0 0,0
15.07.2018 23:00:00 22,8 9,1 5 3 NW 1014,5 10 0 0,0
15.07.2018 22:00:00 24,4 8,5 9 5 NW 1014,2 10 0 0,0
15.07.2018 21:00:00 26,0 10,2 9 5 NW 1013,7 10 42 0,0
15.07.2018 20:00:00 28,3 9,2 13 7 WNW 1013,3 10 60 0,0
15.07.2018 19:00:00 29,0 7,4 11 6 W 1013,1 10 60 0,0
15.07.2018 18:00:00 28,5 8,7 5 3 - 1013,6 10 54 0,0
15.07.2018 17:00:00 29,4 10,0 15 8 W 1014,0 10 60 0,0
15.07.2018 16:00:00 29,3 9,3 15 8 W 1014,4 10 60 0,0
15.07.2018 15:00:00 28,8 9,5 13 7 SW 1014,7 10 60 0,0
15.07.2018 14:00:00 28,4 10,1 11 6 WSW 1015,2 10 60 0,0
15.07.2018 13:00:00 27,2 9,9 9 5 S 1015,9 10 60 0,0
15.07.2018 12:00:00 26,5 9,6 8 4 - 1016,3 10 60 0,0
15.07.2018 11:00:00 25,0 9,4 8 4 SSW 1016,6 10 60 0,0
15.07.2018 10:00:00 23,9 12,2 9 5 WSW 1016,8 10 60 0,0
15.07.2018 09:00:00 21,4 13,0 4 2 - 1017,2 10 60 0,0
15.07.2018 08:00:00 19,1 13,0 4 2 - 1017,3 10 60 0,0
15.07.2018 07:00:00 17,0 12,6 5 3 - 1017,4 10 36 0,0
15.07.2018 06:00:00 15,4 12,1 8 4 W 1017,2 10 0 0,0
15.07.2018 05:00:00 16,4 12,3 8 4 W 1017,3 10 0 0,0
15.07.2018 04:00:00 16,4 12,4 5 3 SSW 1017,7 10 0 0,0
15.07.2018 03:00:00 17,8 13,0 8 4 SW 1017,7 10 0 0,0
15.07.2018 02:00:00 18,7 12,6 8 4 SW 1018,0 10 0 0,0
15.07.2018 01:00:00 19,6 12,4 5 3 - 1018,0 10 - 0,0
15.07.2018 00:00:00 20,8 12,4 8 4 SW 1018,1 10 0 0,0
14.07.2018 23:00:00 22,3 12,4 15 8 SW 1018,1 10 0 0,0
14.07.2018 22:00:00 23,4 11,6 15 8 SW 1018,0 10 0 0,0
14.07.2018 21:00:00 24,7 12,0 16 9 SW 1017,5 10 6 0,0
14.07.2018 20:00:00 25,8 12,3 21 11 SW 1017,4 10 48 0,0
14.07.2018 19:00:00 27,2 12,0 15 8 SW 1017,4 10 54 0,0
14.07.2018 18:00:00 27,7 11,1 18 10 WSW 1017,7 10 48 0,0
14.07.2018 17:00:00 27,8 10,4 15 8 SSW 1018,0 10 54 0,0
14.07.2018 16:00:00 27,5 12,2 13 7 WSW 1018,5 10 42 0,0
14.07.2018 15:00:00 27,7 11,7 15 8 SW 1019,0 10 60 0,0
14.07.2018 14:00:00 26,6 11,4 11 6 SSE 1019,6 10 54 0,0
14.07.2018 13:00:00 26,2 13,1 9 5 SSW 1020,1 10 48 0,0
14.07.2018 12:00:00 25,6 13,0 9 5 S 1020,6 10 54 0,0
14.07.2018 11:00:00 24,5 14,2 8 4 WSW 1021,0 10 60 0,0
14.07.2018 10:00:00 22,0 14,6 8 4 SSW 1021,3 10 60 0,0
14.07.2018 09:00:00 20,2 14,7 9 5 SSE 1021,3 10 60 0,0
14.07.2018 08:00:00 18,8 15,1 8 4 SE 1021,5 10 60 0,0
14.07.2018 07:00:00 17,2 15,0 9 5 SSE 1021,3 8 24 0,0
14.07.2018 06:00:00 15,6 14,5 5 3 SSE 1021,0 8 0 0,0
14.07.2018 05:00:00 15,3 13,6 4 2 - 1021,1 4,7 0 0,0
14.07.2018 04:00:00 16,5 14,7 8 4 SSE 1021,5 10 0 0,0
14.07.2018 03:00:00 16,9 14,5 8 4 SSE 1021,6 10 0 0,0
14.07.2018 02:00:00 17,5 14,0 8 4 SSE 1021,6 10 0 0,0
14.07.2018 01:00:00 17,6 13,3 9 5 E 1021,8 10 - 0,0
14.07.2018 00:00:00 18,3 14,6 9 5 ENE 1021,9 10 0 0,0
13.07.2018 23:00:00 19,1 14,2 9 5 ENE 1021,8 10 0 0,0
13.07.2018 22:00:00 19,8 14,4 9 5 NE 1021,6 24 0 0,0
13.07.2018 21:00:00 21,7 14,2 13 7 ENE 1021,0 10 0 0,0
13.07.2018 20:00:00 23,6 13,0 16 9 WSW 1020,3 10 36 0,0
13.07.2018 19:00:00 25,6 13,5 15 8 WSW 1020,0 10 42 0,0
13.07.2018 18:00:00 26,0 12,9 18 10 WSW 1020,1 10 30 0,0
13.07.2018 17:00:00 26,0 10,4 5 3 - 1020,4 10 6 0,0
13.07.2018 16:00:00 25,1 9,7 8 4 ENE 1020,8 10 24 0,0
13.07.2018 15:00:00 24,9 10,0 8 4 SSE 1021,3 10 48 0,0
13.07.2018 14:00:00 26,8 12,2 11 6 SE 1021,4 10 60 0,0
13.07.2018 13:00:00 24,5 12,6 8 4 SSE 1022,1 10 60 0,0
13.07.2018 12:00:00 22,3 13,4 4 2 - 1022,5 10 18 0,0
13.07.2018 11:00:00 20,9 13,6 8 4 NE 1022,7 10 12 0,0
13.07.2018 10:00:00 19,4 13,5 5 3 - 1022,8 10 6 0,0
13.07.2018 09:00:00 18,2 13,9 5 3 - 1022,8 10 0 0,0
13.07.2018 08:00:00 17,6 14,0 5 3 ENE 1022,7 13 0 0,0
13.07.2018 07:00:00 17,1 14,2 8 4 SE 1022,5 10 0 0,0
13.07.2018 06:00:00 16,5 14,1 8 4 ESE 1022,3 10 0 0,0
13.07.2018 05:00:00 16,1 14,1 11 6 E 1022,6 10 0 0,0
13.07.2018 04:00:00 16,5 14,0 13 7 E 1022,3 10 0 0,0
13.07.2018 03:00:00 17,1 14,2 15 8 E 1022,2 10 0 0,0
13.07.2018 02:00:00 17,6 14,2 15 8 E 1022,2 10 0 0,0
13.07.2018 01:00:00 18,4 14,3 11 6 ENE 1022,0 10 - 0,0
13.07.2018 00:00:00 19,0 14,6 11 6 E 1022,0 10 0 0,0
12.07.2018 23:00:00 20,2 12,7 8 4 SSE 1021,6 10 0 0,0
12.07.2018 22:00:00 21,3 11,7 9 5 ENE 1021,4 10 0 0,0
12.07.2018 21:00:00 22,7 11,6 8 4 ENE 1020,9 10 0 0,0
12.07.2018 20:00:00 22,9 11,4 9 5 E 1020,8 10 6 0,0
12.07.2018 19:00:00 23,6 11,0 13 7 E 1020,6 10 0 0,0
12.07.2018 18:00:00 24,4 10,8 8 4 - 1020,4 10 6 0,0

tt = temperature
td = dewpoint
ff = wind speed
dd = wind direction
ppp = reduced air pressure
vv = visibility
sd = sunshine duration
rr = precipitation

Next stations